Volver al catálogo

MARAFON-D GVM

ActivoComunicacionesPO
NORAD 59072·PAYLOAD·🇷🇺 Russia
Este nombre de satélite aún no ha sido confirmado por fuentes oficiales.

Lanzado Feb 29, 2024 desde Vostochny Cosmodrome

Loading…

Próximos Pases (próximas 24 horas)

TLE

ActualizadoSource: Space-Track

Época: Sep 14, 2026, 13:39 UTC

1 59072U 24039V   26257.56935833  .00000167  00000-0  42472-4 0  9992
2 59072  88.9758 273.0706 0018071  40.5896 319.6652 14.46041172134105

Sigue MARAFON-D GVM en tiempo real con AllMySat

Download on the App Store